Location: *
(34.8620°S, 39.3380°E)
Time: 08:25:49
(UTC+00:00)

NOAA 11 - Pass Details

Date: 27 July 2021
Orbit: 834 x 849 km, 98.4° (Epoch: 22 September)

Event Time Altitude Azimuth Distance (km) Brightness Sun altitude
Rises 02:28:12 0° 17° (NNE) 3,399 7.7 -23.1°
Reaches altitude 10° 02:30:33 10° 18° (NNE) 2,472 6.9 -22.6°
Maximum altitude 02:36:03 82° 104° (ESE) 870 4.2 -21.5°
Drops below altitude 10° 02:41:37 10° 190° (S) 2,502 6.5 -20.3°
Sets 02:44:01 0° 191° (S) 3,444 7.2 -19.9°
